Preview of NWS' New Version of Forecast
This preview is not operational and should not be used for support decisions.

Regional Weather Roundup (RWR)

Issued by National Weather Service (NWS)

                            
000
ASUS43 KTOP 260059
RWRKS 

WEATHER ROUNDUP FOR KANSAS
NATIONAL WEATHER SERVICE GOODLAND KS
800 PM CDT TUE JUN 25 2019

NOTE:  "FAIR" INDICATES FEW OR NO CLOUDS BELOW 12,000 FEET WITH NO
SIGNIFICANT WEATHER AND/OR OBSTRUCTIONS TO VISIBILITY.

KSZ001>006-013>018-027>032-041>047-260200-
NORTHWEST KANSAS
  
CITY           SKY/WX    TMP DP  RH WIND       PRES   REMARKS
GOODLAND       PTSUNNY   82  56  40 S7        29.92S                  
HAYS           SUNNY     87  64  46 S16       29.86R                  
HILL CITY      SUNNY     88  59  37 SE6       29.85S                  
RUSSELL        SUNNY     89  62  40 S15       29.84F                  
$$

KSZ061>065-074>080-084>089-260200-
SOUTHWEST KANSAS
  
CITY           SKY/WX    TMP DP  RH WIND       PRES   REMARKS
DODGE CITY     SUNNY     85  65  51 S17       29.91R                  
GARDEN CITY    SUNNY     86  68  54 SE14      29.90R                  
GREAT BEND       N/A     86  67  52 S14       29.88R                  
LIBERAL        SUNNY     84  62  47 CALM      29.89F                  
$$

KSZ066>073-081>083-090>101-260200-
SOUTHEAST KANSAS
  
CITY           SKY/WX    TMP DP  RH WIND       PRES   REMARKS
CHANUTE        CLEAR     83  71  67 S14       29.93F                  
COFFEYVILLE    CLEAR     83  72  69 S8        29.91F                  
HUTCHINSON     CLEAR     87  68  52 SE9G22    29.89R                  
MEDICINE LODGE   N/A     86  63  45 S18       29.87R                  
NEWTON         CLEAR     83  71  67 S15       29.92R                  
PARSONS        PTCLDY    82  73  74 S7        29.94F                  
WICHITA INTL   PTCLDY    85  70  60 S16       29.89R                  
WICHITA JABRA  CLEAR     83  70  64 SE16G23   29.90R                  
WICHITA MCCONL CLEAR     84  69  61 SE12      29.90R                  
WINFIELD       CLEAR     82  71  69 S10G21    29.91S                  
$$

KSZ007>012-019>026-033>040-048>060-102>105-260200-
NORTHEAST KANSAS
  
CITY           SKY/WX    TMP DP  RH WIND       PRES   REMARKS
CONCORDIA      CLEAR     83  67  58 E7        29.88R                  
EMPORIA        CLEAR     81  71  71 S14G23    29.91R                  
LAWRENCE       CLEAR     83  65  54 S8        29.89S                  
MANHATTAN      CLEAR     84  64  50 S8        29.88R                  
OLATHE IND     CLEAR     82  67  60 S10       29.93R                  
OLATHE EXE     CLEAR     82  68  62 S7        29.92S                  
SALINA         CLEAR     85  65  51 S12       29.85F                  
TOPEKA BILLARD CLEAR     82  64  54 SE6       29.89R                  
TOPEKA FORBES  CLEAR     82  65  56 S7        29.90R                  
$$